Flag for Canada Weather past 2 weeks in Selkirk, Manitoba, Canada

Now
15 °F

Cold.


Feels Like: 8 °F
Forecast: 6 / 30 °F
Wind: 5 mph from West

Location: Winnipeg The Forks

Current Time: Mar 6, 2015 at 8:22:31 AM

Latest Report: Mar 6, 2015 at 8:00 AM


Visibility: N/A

Pressure: 30.02 "Hg

Humidity: 69%

Dew point: 7 °F

Location of SelkirkLocation

Historic Weather in Selkirk — Graph

°F

Selkirk temperature yesterday

Maximum temperature yesterday: 21 °F (at 9:00 PM)
Minimum temperature yesterday: -10 °F (at 7:00 AM)
Average temperature yesterday: 5 °F

Past Weeks' High & Low Weather Summary

 TemperatureHumidityPressure
High27 °F (Feb 23, 10:00 PM)91% (Feb 24, 12:00 AM)30.83 "Hg (Feb 24, 12:00 AM)
Low-21 °F (Feb 22, 8:00 AM)46% (Feb 22, 5:00 PM)29.67 "Hg (Feb 23, 11:00 PM)
Average3 °F66%30.22 "Hg
* Reported Feb 19 7:00 AM — Mar 6 7:00 AM, Selkirk, Weather by CustomWeather, © 2015

Note: Actual official high and low records may vary slightly from our data, if they occured in-between our weather recording intervals... More about our weather records

Advertising

Selkirk weather history for previous 24 hours

 ConditionsComfort  
Time TempWeatherWind HumidityBarometerVisibility
7:00 AM
Fri, Mar 6
15 °FCold.2 mph71%30.02 "HgN/A
6:00 AM17 °FCold.5 mph63%30.01 "HgN/A
5:00 AM15 °FCold.5 mph67%29.98 "HgN/A
4:00 AM16 °FCold.3 mph66%29.98 "HgN/A
3:00 AM16 °FCold.3 mph68%29.97 "HgN/A
2:00 AM16 °FCold.2 mph67%29.96 "HgN/A
1:00 AM16 °FCold.3 mph68%29.95 "HgN/A
12:00 AM18 °FCold.5 mph67%29.95 "HgN/A
11:00 PM
Thu, Mar 5
19 °FCold.3 mph70%29.94 "HgN/A
10:00 PM21 °FCold.7 mph69%29.93 "HgN/A
9:00 PM21 °FCold.8 mph69%29.94 "HgN/A
8:00 PM20 °FCold.7 mph67%29.96 "HgN/A
7:00 PM20 °FCold.6 mph68%30.01 "HgN/A
6:00 PM19 °FCold.7 mph67%30.03 "HgN/A
5:00 PM19 °FCold.8 mph63%30.06 "HgN/A
4:00 PM16 °FCold.8 mph64%30.11 "HgN/A
3:00 PM13 °FCold.7 mph63%30.14 "HgN/A
2:00 PM10 °FFrigid.7 mph61%30.17 "HgN/A
1:00 PM9 °FFrigid.6 mph54%30.22 "HgN/A
12:00 PM6 °FFrigid.6 mph56%30.24 "HgN/A
11:00 AM3 °FFrigid.6 mph52%30.27 "HgN/A
10:00 AM-1 °FFrigid.7 mph57%30.31 "HgN/A
9:00 AM-5 °FFrigid.6 mph62%30.31 "HgN/A
8:00 AM-9 °FFrigid.5 mph66%30.32 "HgN/A
Weather by CustomWeather, © 2015

See weather overviewHow to use our weather pages